Home   Weather   Sedona   Past weeks

Flag for USA Past Weather in Sedona, Arizona, USA — Yesterday and Last 2 Weeks

Now
46 °F

Clear.


Feels Like: 42 °F
Forecast: 40 / 59 °F
Wind: 9 mph from Northeast

Location: Sedona Airport

Current Time: Dec 9, 2016 at 10:00:53 pm

Latest Report: Dec 9, 2016 at 9:35 pm


Visibility: 10 mi

Pressure: 30.24 "Hg (25.88 "Hg at 1282m altitude)

Humidity: 62%

Dew Point: 34 °F

Location of SedonaLocation

Past Weather in Sedona — Graph

°F

Sedona Temperature Yesterday

Maximum temperature yesterday: 57 °F (at 2:15 pm)
Minimum temperature yesterday: 36 °F (at 5:55 am)
Average temperature yesterday: 45 °F

High & Low Weather Summary for the Past Weeks

 TemperatureHumidityPressure
High64 °F (Nov 25, 12:55 pm)100% (Nov 27, 6:55 pm)30.33 "Hg (Nov 27, 6:55 pm)
Low30 °F (Nov 30, 5:15 am)16% (Dec 4, 4:35 pm)29.77 "Hg (Nov 28, 2:15 pm)
Average43 °F51%30.04 "Hg
* Reported Nov 24 8:15 pm — Dec 9 8:35 pm, Sedona, Weather by CustomWeather, © 2016

Note: Actual official high and low records may vary slightly from our data, if they occured in-between our weather recording intervals... More about our weather records

Advertising

Sedona Weather History for the Previous 24 Hours

Scroll right to see more
 ConditionsComfort  
Time TempWeatherWind HumidityBarometerVisibility
8:35 pm
Fri, Dec 9
46 °FClear.12 mph62%30.24 "Hg10 mi
8:15 pm46 °FClear.10 mph62%30.24 "Hg10 mi
7:55 pm46 °FClear.10 mph62%30.24 "Hg10 mi
7:35 pm46 °FClear.8 mph62%30.24 "Hg10 mi
7:15 pm46 °FClear.9 mph62%30.23 "Hg10 mi
6:55 pm46 °FClear.6 mph62%30.23 "Hg10 mi
6:35 pm50 °FClear.3 mph54%30.23 "Hg10 mi
6:15 pm52 °FClear.No wind50%30.22 "Hg10 mi
5:55 pm50 °FClear.No wind54%30.22 "Hg10 mi
5:35 pm52 °FClear.5 mph50%30.23 "Hg10 mi
5:15 pm52 °FSunny.5 mph50%30.23 "Hg10 mi
4:55 pm52 °FSunny.5 mph50%30.23 "Hg10 mi
4:35 pm54 °FSunny.5 mph47%30.23 "Hg10 mi
4:15 pm54 °FSunny.3 mph47%30.23 "Hg10 mi
3:55 pm55 °FSunny.3 mph44%30.23 "Hg10 mi
3:35 pm57 °FSunny.No wind41%30.23 "Hg10 mi
3:15 pm57 °FSunny.5 mph41%30.23 "Hg10 mi
2:55 pm59 °FSunny.5 mph39%30.23 "Hg10 mi
2:35 pm55 °FSunny.No wind44%30.23 "Hg10 mi
2:15 pm57 °FSunny.5 mph41%30.24 "Hg10 mi
1:55 pm55 °FSunny.6 mph44%30.25 "Hg10 mi
1:35 pm57 °FSunny.5 mph41%30.25 "Hg10 mi
1:15 pm57 °FSunny.3 mph39%30.26 "Hg10 mi
12:55 pm55 °FSunny.5 mph41%30.28 "Hg10 mi
12:35 pm55 °FSunny.5 mph44%30.29 "Hg10 mi
12:15 pm54 °FSunny.5 mph47%30.30 "Hg10 mi
11:55 am55 °FSunny.5 mph44%30.32 "Hg10 mi
11:35 am50 °FSunny.No wind50%30.33 "Hg10 mi
11:15 am52 °FSunny.No wind47%30.33 "Hg10 mi
10:55 am52 °FSunny.5 mph50%30.33 "Hg10 mi
10:35 am50 °FSunny.3 mph50%30.33 "Hg10 mi
10:15 am46 °FSunny.3 mph57%30.33 "Hg10 mi
9:55 am46 °FSunny.3 mph57%30.32 "Hg10 mi
9:35 am45 °FSunny.No wind61%30.33 "Hg10 mi
9:15 am45 °FSunny.No wind61%30.32 "Hg10 mi
8:55 am45 °FSunny.5 mph61%30.32 "Hg10 mi
8:35 am45 °FSunny.6 mph61%30.32 "Hg10 mi
8:15 am43 °FSunny.5 mph66%30.32 "Hg10 mi
7:55 am41 °FSunny.8 mph70%30.32 "Hg10 mi
7:15 am41 °FClear.8 mph70%30.31 "Hg10 mi
6:55 am41 °FClear.7 mph70%30.30 "Hg10 mi
6:35 am41 °FClear.6 mph70%30.30 "Hg10 mi
6:15 am41 °FClear.5 mph70%30.30 "Hg10 mi
5:55 am41 °FClear.5 mph70%30.29 "Hg10 mi
5:15 am41 °FClear.6 mph70%30.29 "Hg10 mi
4:55 am41 °FClear.9 mph70%30.29 "Hg10 mi
4:35 am41 °FClear.8 mph70%30.29 "Hg10 mi
4:15 am41 °FClear.6 mph70%30.29 "Hg10 mi
3:55 am41 °FClear.7 mph70%30.29 "Hg10 mi
3:35 am43 °FClear.7 mph66%30.30 "Hg10 mi
3:15 am41 °FClear.7 mph70%30.30 "Hg10 mi
2:55 am43 °FClear.9 mph66%30.29 "Hg10 mi
2:35 am41 °FClear.7 mph70%30.28 "Hg10 mi
2:15 am43 °FClear.6 mph66%30.28 "Hg10 mi
1:55 am43 °FClear.7 mph66%30.28 "Hg10 mi
1:35 am43 °FClear.8 mph66%30.28 "Hg10 mi
1:15 am41 °FClear.9 mph70%30.28 "Hg10 mi
12:55 am41 °FClear.8 mph70%30.28 "Hg10 mi
12:35 am41 °FClear.6 mph70%30.29 "Hg10 mi
12:15 am41 °FClear.7 mph70%30.30 "Hg10 mi
11:55 pm
Thu, Dec 8
43 °FClear.6 mph61%30.30 "Hg10 mi
11:35 pm43 °FClear.6 mph61%30.30 "Hg10 mi
11:15 pm43 °FClear.6 mph61%30.30 "Hg10 mi
10:55 pm43 °FClear.6 mph61%30.30 "Hg10 mi
10:35 pm43 °FClear.6 mph61%30.29 "Hg10 mi
10:15 pm43 °FClear.6 mph61%30.29 "Hg10 mi
Weather by CustomWeather, © 2016

See weather overviewHow to use our weather pages